PP5CFL-13 Weather Reports


time (UTC)temp
C
wind
direction
speed
KPH
gust
KPH
rain 1hr
cm
rain 24hr
cm
rain mn
cm
humidity
%
barometer
mb
20260905003741 19 0.0 0.0 0.00 0.00 0.00 58 1020.1
20260905003241 19 0.0 0.0 0.00 0.00 0.00 58 1020.1
20260905002741 19 0.0 0.0 0.00 0.00 0.00 58 1020.0
20260905002241 19 0.0 0.0 0.00 0.00 0.00 58 1019.9
20260905001741 19 0.0 0.0 0.00 0.00 0.00 58 1019.8
20260905001241 19 0.0 0.0 0.00 0.00 0.00 58 1019.8
20260905000741 20 0.0 0.0 0.00 0.00 0.00 59 1019.6
20260905000241 20 0.0 0.0 0.00 0.00 0.00 60 1019.5
20260904235741 20 0.0 0.0 0.00 0.00 0.00 60 1019.4
20260904235241 20 0.0 0.0 0.00 0.00 0.00 60 1019.6
20260904234741 20 0.0 0.0 0.00 0.00 0.00 60 1019.3
20260904234241 20 0.0 0.0 0.00 0.00 0.00 59 1019.6
20260904233741 20 0.0 0.0 0.00 0.00 0.00 60 1019.5
20260904233241 20 0.0 0.0 0.00 0.00 0.00 59 1019.5
20260904232741 20 0.0 0.0 0.00 0.00 0.00 60 1019.5
20260904232241 20 0.0 0.0 0.00 0.00 0.00 60 1019.6
20260904231741 20 0.0 0.0 0.00 0.00 0.00 60 1019.6
20260904231241 20 0.0 0.0 0.00 0.00 0.00 60 1019.4
20260904230741 19 0.0 0.0 0.00 0.00 0.00 63 1019.5
20260904230241 19 0.0 0.0 0.00 0.00 0.00 63 1019.6
20260904225741 19 0.0 0.0 0.00 0.00 0.00 63 1019.6
20260904225241 19 0.0 0.0 0.00 0.00 0.00 63 1019.4
20260904224741 19 0.0 0.0 0.00 0.00 0.00 63 1019.4
20260904224241 19 0.0 0.0 0.00 0.00 0.00 63 1019.3
20260904223741 19 0.0 0.0 0.00 0.00 0.00 63 1019.3
20260904223241 19 0.0 0.0 0.00 0.00 0.00 63 1019.1
20260904222743 19 0.0 0.0 0.00 0.00 0.00 63 1019.1
20260904222241 19 0.0 0.0 0.00 0.00 0.00 63 1019.0
20260904221741 19 0.0 0.0 0.00 0.00 0.00 62 1018.9
20260904221241 19 0.0 0.0 0.00 0.00 0.00 63 1018.9
20260904220741 19 0.0 0.0 0.00 0.00 0.00 63 1018.9
20260904220241 19 0.0 0.0 0.00 0.00 0.00 63 1018.8
20260904215741 19 0.0 0.0 0.00 0.00 0.00 63 1018.7
20260904215241 19 0.0 0.0 0.00 0.00 0.00 63 1018.7
20260904214741 19 0.0 0.0 0.00 0.00 0.00 64 1018.8
20260904214241 19 0.0 0.0 0.00 0.00 0.00 64 1019.1
20260904213741 19 0.0 0.0 0.00 0.00 0.00 64 1018.8
20260904213241 19 0.0 0.0 0.00 0.00 0.00 64 1018.8
20260904212741 19 0.0 0.0 0.00 0.00 0.00 63 1018.8
20260904212241 19 0.0 0.0 0.00 0.00 0.00 63 1018.7
20260904211741 19 0.0 0.0 0.00 0.00 0.00 63 1018.9
20260904211241 19 0.0 0.0 0.00 0.00 0.00 63 1018.5
20260904210741 19 0.0 0.0 0.00 0.00 0.00 63 1018.8
20260904210241 19 0.0 0.0 0.00 0.00 0.00 62 1018.8
20260904205741 19 0.0 0.0 0.00 0.00 0.00 62 1018.7
20260904205241 19 0.0 0.0 0.00 0.00 0.00 62 1018.5
20260904204741 19 0.0 0.0 0.00 0.00 0.00 62 1018.4
20260904204241 20 0.0 0.0 0.00 0.00 0.00 62 1018.3
20260904203741 20 0.0 0.0 0.00 0.00 0.00 62 1018.3
20260904203241 20 0.0 0.0 0.00 0.00 0.00 62 1018.2
20260904202741 20 0.0 0.0 0.00 0.00 0.00 62 1018.4
20260904202241 20 0.0 0.0 0.00 0.00 0.00 61 1018.4
20260904201741 20 0.0 0.0 0.00 0.00 0.00 61 1018.4
20260904201241 20 0.0 0.0 0.00 0.00 0.00 61 1018.4
20260904200741 20 0.0 0.0 0.00 0.00 0.00 61 1018.3
20260904200241 20 0.0 0.0 0.00 0.00 0.00 60 1018.2
20260904195741 20 0.0 0.0 0.00 0.00 0.00 59 1018.5
20260904195241 20 0.0 0.0 0.00 0.00 0.00 58 1018.5
20260904194741 20 0.0 0.0 0.00 0.00 0.00 57 1018.5
20260904194241 19 0.0 0.0 0.00 0.00 0.00 56 1018.5
20260904193741 20 0.0 0.0 0.00 0.00 0.00 55 1018.3
20260904193241 20 0.0 0.0 0.00 0.00 0.00 55 1018.1
20260904192741 20 0.0 0.0 0.00 0.00 0.00 53 1018.1
20260904192241 20 0.0 0.0 0.00 0.00 0.00 53 1017.9
20260904191741 20 0.0 0.0 0.00 0.00 0.00 56 1017.8
20260904191241 20 0.0 0.0 0.00 0.00 0.00 56 1017.6
20260904190741 20 0.0 0.0 0.00 0.00 0.00 56 1017.7
20260904190241 20 0.0 0.0 0.00 0.00 0.00 56 1017.5
20260904185741 20 0.0 0.0 0.00 0.00 0.00 58 1017.5
20260904185241 20 0.0 0.0 0.00 0.00 0.00 58 1017.1
20260904184741 20 0.0 0.0 0.00 0.00 0.00 58 1017.0
20260904184241 20 0.0 0.0 0.00 0.00 0.00 57 1017.1
20260904183741 20 0.0 0.0 0.00 0.00 0.00 57 1017.1
20260904183241 20 0.0 0.0 0.00 0.00 0.00 57 1016.9
20260904182741 20 0.0 0.0 0.00 0.00 0.00 56 1016.8
20260904182241 20 0.0 0.0 0.00 0.00 0.00 57 1016.8
20260904181741 20 0.0 0.0 0.00 0.00 0.00 58 1016.9
20260904181241 20 0.0 0.0 0.00 0.00 0.00 60 1016.8
20260904180741 20 0.0 0.0 0.00 0.00 0.00 60 1016.9
20260904180241 20 0.0 0.0 0.00 0.00 0.00 62 1016.9
20260904175741 20 0.0 0.0 0.00 0.00 0.00 63 1017.0
20260904175241 20 0.0 0.0 0.00 0.00 0.00 63 1016.9
20260904174741 20 0.0 0.0 0.00 0.00 0.00 65 1017.1
20260904174241 20 0.0 0.0 0.00 0.00 0.00 65 1017.0
20260904173741 20 0.0 0.0 0.00 0.00 0.00 65 1017.0
20260904173241 20 0.0 0.0 0.00 0.00 0.00 65 1017.1
20260904172741 20 0.0 0.0 0.00 0.00 0.00 66 1017.0
20260904172241 20 0.0 0.0 0.00 0.00 0.00 66 1016.8
20260904171741 20 0.0 0.0 0.00 0.00 0.00 66 1016.8
20260904171241 20 0.0 0.0 0.00 0.00 0.00 66 1016.9
20260904170741 20 0.0 0.0 0.00 0.00 0.00 66 1017.1
20260904170241 20 0.0 0.0 0.00 0.00 0.00 66 1016.8
20260904165741 20 0.0 0.0 0.00 0.00 0.00 67 1016.8
20260904165241 20 0.0 0.0 0.00 0.00 0.00 67 1016.8
20260904164741 20 0.0 0.0 0.00 0.00 0.00 67 1016.7
20260904164241 20 0.0 0.0 0.00 0.00 0.00 68 1016.9
20260904163741 20 0.0 0.0 0.00 0.00 0.00 68 1017.0
20260904163240 20 0.0 0.0 0.00 0.00 0.00 67 1017.1
20260904162741 20 0.0 0.0 0.00 0.00 0.00 67 1017.1
20260904162241 20 0.0 0.0 0.00 0.00 0.00 67 1017.2
20260904161741 20 0.0 0.0 0.00 0.00 0.00 67 1017.0
20260904161241 20 0.0 0.0 0.00 0.00 0.00 67 1017.1
20260904160740 20 0.0 0.0 0.00 0.00 0.00 67 1017.2
20260904160241 20 0.0 0.0 0.00 0.00 0.00 67 1017.2
20260904155740 20 0.0 0.0 0.00 0.00 0.00 67 1017.2
20260904155241 20 0.0 0.0 0.00 0.00 0.00 66 1017.5
20260904154741 20 0.0 0.0 0.00 0.00 0.00 66 1017.5
20260904154241 21 0.0 0.0 0.00 0.00 0.00 64 1017.2
20260904153742 20 0.0 0.0 0.00 0.00 0.00 68 1017.6
20260904153241 20 0.0 0.0 0.00 0.00 0.00 69 1017.7
20260904152740 20 0.0 0.0 0.00 0.00 0.00 70 1017.7
20260904152241 20 0.0 0.0 0.00 0.00 0.00 69 1017.8
20260904151740 20 0.0 0.0 0.00 0.00 0.00 71 1017.8
20260904151240 20 0.0 0.0 0.00 0.00 0.00 71 1017.3
20260904150740 20 0.0 0.0 0.00 0.00 0.00 71 1016.9
20260904150241 20 0.0 0.0 0.00 0.00 0.00 71 1017.1
20260904145740 20 0.0 0.0 0.00 0.00 0.00 71 1017.1
20260904145240 20 0.0 0.0 0.00 0.00 0.00 71 1017.6
20260904144741 20 0.0 0.0 0.00 0.00 0.00 72 1017.8
20260904144240 20 0.0 0.0 0.00 0.00 0.00 72 1017.9
20260904143740 20 0.0 0.0 0.00 0.00 0.00 72 1017.9
20260904143240 20 0.0 0.0 0.00 0.00 0.00 73 1017.9
20260904142740 20 0.0 0.0 0.00 0.00 0.00 73 1018.0
20260904142241 20 0.0 0.0 0.00 0.00 0.00 73 1018.1
20260904141740 20 0.0 0.0 0.00 0.00 0.00 73 1018.0
20260904141240 20 0.0 0.0 0.00 0.00 0.00 74 1018.0
20260904140740 20 0.0 0.0 0.00 0.00 0.00 74 1018.0
20260904140240 20 0.0 0.0 0.00 0.00 0.00 74 1018.2
20260904135740 20 0.0 0.0 0.00 0.00 0.00 74 1018.1
20260904135240 20 0.0 0.0 0.00 0.00 0.00 75 1018.4
20260904134746 20 0.0 0.0 0.00 0.00 0.00 75 1018.5
20260904134240 20 0.0 0.0 0.00 0.00 0.00 75 1018.5
20260904133740 20 0.0 0.0 0.00 0.00 0.00 76 1018.6
20260904133240 20 0.0 0.0 0.00 0.00 0.00 76 1018.8
20260904132740 20 0.0 0.0 0.00 0.00 0.00 76 1018.7
20260904132240 20 0.0 0.0 0.00 0.00 0.00 76 1018.6
20260904131740 20 0.0 0.0 0.00 0.00 0.00 76 1018.4
20260904131240 20 0.0 0.0 0.00 0.00 0.00 75 1018.4
20260904130740 20 0.0 0.0 0.00 0.00 0.00 75 1018.5
20260904130240 20 0.0 0.0 0.00 0.00 0.00 76 1018.7
20260904125740 20 0.0 0.0 0.00 0.00 0.00 75 1018.8
20260904125240 20 0.0 0.0 0.00 0.00 0.00 75 1018.7
20260904124740 20 0.0 0.0 0.00 0.00 0.00 74 1018.8
20260904124240 20 0.0 0.0 0.00 0.00 0.00 75 1018.7
20260904123740 20 0.0 0.0 0.00 0.00 0.00 74 1018.8
20260904123240 20 0.0 0.0 0.00 0.00 0.00 75 1018.9
20260904122740 20 0.0 0.0 0.00 0.00 0.00 75 1019.0
20260904122240 20 0.0 0.0 0.00 0.00 0.00 75 1019.0
20260904121740 20 0.0 0.0 0.00 0.00 0.00 74 1019.0
20260904121240 20 0.0 0.0 0.00 0.00 0.00 74 1018.9
20260904120740 20 0.0 0.0 0.00 0.00 0.00 73 1018.8
20260904120240 20 0.0 0.0 0.00 0.00 0.00 72 1018.7
20260904115740 20 0.0 0.0 0.00 0.00 0.00 73 1018.9
20260904115240 20 0.0 0.0 0.00 0.00 0.00 73 1018.8
20260904114740 19 0.0 0.0 0.00 0.00 0.00 73 1018.5
20260904114240 19 0.0 0.0 0.00 0.00 0.00 73 1018.5
20260904113740 20 0.0 0.0 0.00 0.00 0.00 73 1018.4
20260904113240 19 0.0 0.0 0.00 0.00 0.00 73 1018.4
20260904112740 19 0.0 0.0 0.00 0.00 0.00 73 1018.3
20260904112240 20 0.0 0.0 0.00 0.00 0.00 73 1018.3
20260904111740 20 0.0 0.0 0.00 0.00 0.00 73 1018.0
20260904111240 19 0.0 0.0 0.00 0.00 0.00 74 1018.0
20260904110740 19 0.0 0.0 0.00 0.00 0.00 74 1018.0
20260904110240 20 0.0 0.0 0.00 0.00 0.00 74 1017.9
20260904105740 20 0.0 0.0 0.00 0.00 0.00 74 1017.8
20260904105240 20 0.0 0.0 0.00 0.00 0.00 73 1017.8
20260904104740 20 0.0 0.0 0.00 0.00 0.00 74 1017.7
20260904104240 19 0.0 0.0 0.00 0.00 0.00 73 1017.7
20260904103740 20 0.0 0.0 0.00 0.00 0.00 73 1017.8
20260904103240 19 0.0 0.0 0.00 0.00 0.00 74 1017.7
20260904102740 20 0.0 0.0 0.00 0.00 0.00 74 1017.7
20260904102241 19 0.0 0.0 0.00 0.00 0.00 74 1017.7
20260904101740 19 0.0 0.0 0.00 0.00 0.00 75 1017.6
20260904101240 20 0.0 0.0 0.00 0.00 0.00 76 1017.6
20260904100740 20 0.0 0.0 0.00 0.00 0.00 76 1017.5
20260904100256 20 0.0 0.0 0.00 0.00 0.00 76 1017.4
20260904095819 20 0.0 0.0 0.00 0.00 0.00 77 1017.6
20260904095343 19 0.0 0.0 0.00 0.00 0.00 77 1017.5
20260904094907 19 0.0 0.0 0.00 0.00 0.00 77 1017.3
20260904094241 20 0.0 0.0 0.00 0.00 0.00 78 1017.4
20260904092740 20 0.0 0.0 0.00 0.00 0.00 80 1017.1
20260904092240 20 0.0 0.0 0.00 0.00 0.00 81 1017.2
20260904091740 20 0.0 0.0 0.00 0.00 0.00 82 1017.0
20260904091240 20 0.0 0.0 0.00 0.00 0.00 82 1016.9
20260904090740 20 0.0 0.0 0.00 0.00 0.00 82 1016.9
20260904090240 20 0.0 0.0 0.00 0.00 0.00 82 1016.8
20260904085756 20 0.0 0.0 0.00 0.00 0.00 83 1016.6
20260904085240 20 0.0 0.0 0.00 0.00 0.00 83 1016.3
20260904084740 20 0.0 0.0 0.00 0.00 0.00 83 1016.3
20260904084240 20 0.0 0.0 0.00 0.00 0.00 84 1016.3
20260904083740 20 0.0 0.0 0.00 0.00 0.00 84 1016.4
20260904083240 20 0.0 0.0 0.00 0.00 0.00 84 1016.3
20260904082251 20 0.0 0.0 0.00 0.00 0.00 85 1016.2
20260904081242 20 0.0 0.0 0.00 0.00 0.00 85 1016.1
20260904080740 20 0.0 0.0 0.00 0.00 0.00 85 1015.9
20260904080240 20 0.0 0.0 0.00 0.00 0.00 85 1015.8
20260904075741 20 0.0 0.0 0.00 0.00 0.00 85 1015.7
20260904074240 20 0.0 0.0 0.00 0.00 0.00 86 1015.3
20260904073740 20 0.0 0.0 0.00 0.00 0.00 86 1015.3
20260904073240 20 0.0 0.0 0.00 0.00 0.00 85 1015.3
20260904072740 20 0.0 0.0 0.00 0.00 0.00 85 1015.2
20260904072240 20 0.0 0.0 0.00 0.00 0.00 85 1015.0
20260904071740 20 0.0 0.0 0.00 0.00 0.00 85 1015.0
20260904070740 20 0.0 0.0 0.00 0.00 0.00 85 1015.2
20260904070240 20 0.0 0.0 0.00 0.00 0.00 85 1015.1
20260904064740 20 0.0 0.0 0.00 0.00 0.00 85 1015.2
20260904063826 20 0.0 0.0 0.00 0.00 0.00 85 1015.2
20260904063240 20 0.0 0.0 0.00 0.00 0.00 84 1015.1
20260904062740 20 0.0 0.0 0.00 0.00 0.00 84 1015.1
20260904062240 20 0.0 0.0 0.00 0.00 0.00 84 1015.0
20260904061740 20 0.0 0.0 0.00 0.00 0.00 84 1015.0
20260904061240 20 0.0 0.0 0.00 0.00 0.00 84 1015.0
20260904060740 20 0.0 0.0 0.00 0.00 0.00 84 1014.9
20260904060240 20 0.0 0.0 0.00 0.00 0.00 85 1014.8
20260904055740 20 0.0 0.0 0.00 0.00 0.00 86 1014.8
20260904054240 20 0.0 0.0 0.00 0.00 0.00 91 1014.7
20260904053740 20 0.0 0.0 0.00 0.00 0.00 91 1014.9
20260904053240 20 0.0 0.0 0.00 0.00 0.00 90 1015.0
20260904052740 20 0.0 0.0 0.00 0.00 0.00 91 1014.7
20260904052242 20 0.0 0.0 0.00 0.00 0.00 91 1015.0
20260904051740 20 0.0 0.0 0.00 0.00 0.00 91 1015.0
20260904051240 20 0.0 0.0 0.00 0.00 0.00 91 1014.9
20260904050745 20 0.0 0.0 0.00 0.00 0.00 91 1014.5
20260904045746 20 0.0 0.0 0.00 0.00 0.00 90 1014.6
20260904044740 20 0.0 0.0 0.00 0.00 0.00 90 1014.6
20260904043740 20 0.0 0.0 0.00 0.00 0.00 90 1014.8
20260904042740 20 0.0 0.0 0.00 0.00 0.00 90 1014.9
20260904042240 20 0.0 0.0 0.00 0.00 0.00 90 1014.8
20260904040740 21 0.0 0.0 0.00 0.00 0.00 89 1014.7
20260904035740 21 0.0 0.0 0.00 0.00 0.00 89 1014.8
20260904035240 21 0.0 0.0 0.00 0.00 0.00 88 1014.8
20260904034415 21 0.0 0.0 0.00 0.00 0.00 89 1014.9
20260904033740 21 0.0 0.0 0.00 0.00 0.00 89 1014.9
20260904033240 21 0.0 0.0 0.00 0.00 0.00 88 1014.8
20260904032740 21 0.0 0.0 0.00 0.00 0.00 88 1014.9
20260904032240 21 0.0 0.0 0.00 0.00 0.00 88 1015.0
20260904031740 21 0.0 0.0 0.00 0.00 0.00 88 1015.0
20260904030240 21 0.0 0.0 0.00 0.00 0.00 88 1015.1
20260904025740 21 0.0 0.0 0.00 0.00 0.00 88 1015.3
20260904025240 21 0.0 0.0 0.00 0.00 0.00 88 1015.3
20260904024740 21 0.0 0.0 0.00 0.00 0.00 88 1015.3
20260904023740 21 0.0 0.0 0.00 0.00 0.00 88 1015.3
20260904023240 21 0.0 0.0 0.00 0.00 0.00 88 1015.4
20260904022740 21 0.0 0.0 0.00 0.00 0.00 88 1015.4
20260904022240 21 0.0 0.0 0.00 0.00 0.00 88 1015.4
20260904021740 21 0.0 0.0 0.00 0.00 0.00 87 1015.5
20260904021240 21 0.0 0.0 0.00 0.00 0.00 87 1015.4
20260904015802 21 0.0 0.0 0.00 0.00 0.00 86 1015.3
20260904015240 21 0.0 0.0 0.00 0.00 0.00 86 1015.3
20260904014240 21 0.0 0.0 0.00 0.00 0.00 86 1015.3
20260904013740 21 0.0 0.0 0.00 0.00 0.00 86 1015.6
20260904013240 21 0.0 0.0 0.00 0.00 0.00 86 1015.6
20260904012740 21 0.0 0.0 0.00 0.00 0.00 85 1015.7
20260904011856 21 0.0 0.0 0.00 0.00 0.00 85 1015.7
20260904011240 21 0.0 0.0 0.00 0.00 0.00 84 1015.9
20260904010740 21 0.0 0.0 0.00 0.00 0.00 84 1015.8
20260904005748 21 0.0 0.0 0.00 0.00 0.00 84 1015.9
20260904005235 21 0.0 0.0 0.00 0.00 0.00 84 1015.9